Weather Data

Pearl Creek Farm: 8878 N Farm Road 75, Walnut Grove MO 65770

<== Previous Day (Friday 11 Sep 2015) | Next Day (Sunday 13 Sep 2015) ==>

Summary Precipitation Data For Saturday 12 September 2015

ElementValueUnits
Precipitation0.01"
Notes(none)
SourcePearl Creek Farm

Summary Temperature Data For Saturday 12 September 2015

ElementValueUnits
High Temperature69 oF
Low Temperature52 oF
Average Temperature60 oF
High Humidity93 %
Low Humidity57 %
Average Humidity78 %
SourcePearl Creek Farm

Detail Temperature Data For Saturday 12 September 2015

Date / TimeTemp (F)RH (%)Dew Pt (F)Report Date / TimeSource
2015-09-12 00:00:00 58 85 53.4 2015-11-18 13:17:03 Pearl Creek Farm
2015-09-12 00:30:00 58 85 53.5 2015-11-18 13:17:03 Pearl Creek Farm
2015-09-12 01:00:00 57 85 52.5 2015-11-18 13:17:03 Pearl Creek Farm
2015-09-12 01:30:00 57 86 52.9 2015-11-18 13:17:03 Pearl Creek Farm
2015-09-12 02:00:00 56 86 51.7 2015-11-18 13:17:03 Pearl Creek Farm
2015-09-12 02:30:00 55 88 51.5 2015-11-18 13:17:03 Pearl Creek Farm
2015-09-12 03:00:00 54 88 50.4 2015-11-18 13:17:03 Pearl Creek Farm
2015-09-12 03:30:00 54 88 50.5 2015-11-18 13:17:03 Pearl Creek Farm
2015-09-12 04:00:00 54 89 50.7 2015-11-18 13:17:03 Pearl Creek Farm
2015-09-12 04:30:00 53 89 49.7 2015-11-18 13:17:03 Pearl Creek Farm
2015-09-12 05:00:00 53 89 49.7 2015-11-18 13:17:03 Pearl Creek Farm
2015-09-12 05:30:00 53 89 49.8 2015-11-18 13:17:03 Pearl Creek Farm
2015-09-12 06:00:00 52 90 49.0 2015-11-18 13:17:03 Pearl Creek Farm
2015-09-12 06:30:00 52 89 48.9 2015-11-18 13:17:03 Pearl Creek Farm
2015-09-12 07:00:00 52 89 48.7 2015-11-18 13:17:03 Pearl Creek Farm
2015-09-12 07:30:00 52 90 49.0 2015-11-18 13:17:03 Pearl Creek Farm
2015-09-12 08:00:00 52 92 49.6 2015-11-18 13:17:03 Pearl Creek Farm
2015-09-12 08:30:00 54 93 51.9 2015-11-18 13:17:03 Pearl Creek Farm
2015-09-12 09:00:00 56 91 53.4 2015-11-18 13:17:03 Pearl Creek Farm
2015-09-12 09:30:00 57 88 53.5 2015-11-18 13:17:03 Pearl Creek Farm
2015-09-12 10:00:00 58 84 53.2 2015-11-18 13:17:03 Pearl Creek Farm
2015-09-12 10:30:00 60 80 53.8 2015-11-18 13:17:03 Pearl Creek Farm
2015-09-12 11:00:00 61 76 53.2 2015-11-18 13:17:03 Pearl Creek Farm
2015-09-12 11:30:00 63 74 54.4 2015-11-18 13:17:03 Pearl Creek Farm
2015-09-12 12:00:00 64 68 53.2 2015-11-18 13:17:03 Pearl Creek Farm
2015-09-12 12:30:00 65 70 54.8 2015-11-18 13:17:03 Pearl Creek Farm
2015-09-12 13:00:00 66 63 53.1 2015-11-18 13:17:03 Pearl Creek Farm
2015-09-12 13:30:00 66 64 53.5 2015-11-18 13:17:03 Pearl Creek Farm
2015-09-12 14:00:00 67 60 52.7 2015-11-18 13:17:03 Pearl Creek Farm
2015-09-12 14:30:00 69 59 54.1 2015-11-18 13:17:03 Pearl Creek Farm
2015-09-12 15:00:00 69 58 53.6 2015-11-18 13:17:03 Pearl Creek Farm
2015-09-12 15:30:00 69 57 53.1 2015-11-18 13:17:03 Pearl Creek Farm
2015-09-12 16:00:00 69 58 53.4 2015-11-18 13:17:03 Pearl Creek Farm
2015-09-12 16:30:00 69 57 53.1 2015-11-18 13:17:03 Pearl Creek Farm
2015-09-12 17:00:00 68 57 52.0 2015-11-18 13:17:03 Pearl Creek Farm
2015-09-12 17:30:00 67 60 52.4 2015-11-18 13:17:03 Pearl Creek Farm
2015-09-12 18:00:00 67 60 52.7 2015-11-18 13:17:03 Pearl Creek Farm
2015-09-12 18:30:00 66 65 53.7 2015-11-18 13:17:03 Pearl Creek Farm
2015-09-12 19:00:00 65 73 56.0 2015-11-18 13:17:03 Pearl Creek Farm
2015-09-12 19:30:00 63 78 55.9 2015-11-18 13:17:03 Pearl Creek Farm
2015-09-12 20:00:00 62 80 55.6 2015-11-18 13:17:03 Pearl Creek Farm
2015-09-12 20:30:00 60 80 53.6 2015-11-18 13:17:03 Pearl Creek Farm
2015-09-12 21:00:00 59 83 53.7 2015-11-18 13:17:03 Pearl Creek Farm
2015-09-12 21:30:00 58 84 53.0 2015-11-18 13:17:03 Pearl Creek Farm
2015-09-12 22:00:00 57 85 52.4 2015-11-18 13:17:03 Pearl Creek Farm
2015-09-12 22:30:00 56 86 51.7 2015-11-18 13:17:03 Pearl Creek Farm
2015-09-12 23:00:00 55 86 50.7 2015-11-18 13:17:03 Pearl Creek Farm
2015-09-12 23:30:00 55 85 50.6 2015-11-18 13:17:03 Pearl Creek Farm

A total of 48 rows are displayed.